| time (UTC) | temp C | wind direction | speed KPH | gust KPH | rain 1hr cm | rain 24hr cm | rain mn cm | humidity % | barometer mb |
| 20260506033248 | 14 | 293 | 6.4 | 0.0 | 0.00 | 0.10 | 0.10 | 80 | 1016.8 |
| 20260506023135 | 16 | 268 | 6.4 | 20.9 | 0.00 | 0.10 | 0.10 | 74 | 1016.1 |
| 20260506013134 | 16 | 230 | 8.0 | 22.5 | 0.00 | 0.10 | 0.10 | 70 | 1015.9 |
| 20260506003143 | 16 | 244 | 8.0 | 20.9 | 0.00 | 0.10 | 0.10 | 71 | 1015.7 |
| 20260505233134 | 16 | 337 | 8.0 | 24.1 | 0.00 | 0.10 | 0.10 | 71 | 1015.6 |
| 20260505223135 | 17 | 219 | 9.7 | 25.7 | 0.00 | 0.10 | 0.10 | 70 | 1015.6 |
| 20260505213135 | 17 | 292 | 8.0 | 19.3 | 0.00 | 0.10 | 0.10 | 64 | 1015.9 |
| 20260505203133 | 17 | 262 | 6.4 | 24.1 | 0.00 | 0.10 | 0.10 | 66 | 1015.9 |
| 20260505195908 | 17 | 300 | 8.0 | 20.9 | 0.00 | 0.10 | 0.10 | 66 | 1016.2 |
| 20260505183133 | 16 | 288 | 6.4 | 17.7 | 0.00 | 0.10 | 0.10 | 74 | 1016.1 |
| 20260505173131 | 14 | 324 | 3.2 | 9.7 | 0.00 | 0.10 | 0.10 | 85 | 1015.8 |
| 20260505163131 | 13 | 289 | 3.2 | 11.3 | 0.00 | 0.10 | 0.10 | 86 | 1015.8 |
| 20260505153133 | 13 | 261 | 4.8 | 11.3 | 0.00 | 0.10 | 0.10 | 86 | 1015.3 |
| 20260505123132 | 11 | 227 | 0.0 | 6.4 | 0.03 | 0.10 | 0.08 | 89 | 1014.7 |
| 20260505113131 | 11 | 286 | 3.2 | 6.4 | 0.00 | 0.08 | 0.08 | 88 | 1014.9 |
| 20260505093132 | 11 | 241 | 0.0 | 6.4 | 0.05 | 0.05 | 0.00 | 88 | 1015.0 |
| 20260505083132 | 11 | 292 | 1.6 | 11.3 | 0.00 | 0.00 | 0.00 | 86 | 1015.3 |
| 20260505073132 | 12 | 293 | 6.4 | 19.3 | 0.00 | 0.00 | 0.00 | 82 | 1015.9 |
| 20260505063132 | 12 | 293 | 8.0 | 16.1 | 0.00 | 0.00 | 0.00 | 77 | 1015.5 |
| 20260505053132 | 13 | 299 | 9.7 | 20.9 | 0.00 | 0.00 | 0.00 | 76 | 1015.4 |